Weather History for Montrose, CO

Change the Weather History Date:

Friday, July 4, 2014

  Actual Average Record
Temperature  
Mean Temperature 79 °F 73 °F  
Max Temperature 91 °F 90 °F 98 °F (2001)
Min Temperature 66 °F 56 °F 45 °F (1997)
Degree Days  
Heating Degree Days 0 0  
Month to date heating degree days 0 0  
Since 1 June heating degree days 18 39  
Since 1 July heating degree days 0 0  
Cooling Degree Days 14 8  
Month to date cooling degree days 40 31  
Year to date cooling degree days 221 183  
Since 1 June cooling degree days 180 166  
Growing Degree Days 28 (Base 50)    
Moisture  
Dew Point 41 °F    
Average Humidity 28    
Maximum Humidity 42    
Minimum Humidity 14    
Precipitation  
Precipitation 0.00 in 0.03 in 0.12 in (2006)
Month to date precipitation 0.00 0.10  
Year to date precipitation 3.28 5.17  
Sea Level Pressure  
Sea Level Pressure 29.97 in    
Wind  
Wind Speed 7 mph (SE)    
Max Wind Speed 16 mph    
Max Gust Speed 19 mph    
Visibility 10 miles    
Events      
T = Trace of Precipitation, MM = Missing Value Source: NWS Daily Summary

Daily Weather History Graph

Daily Weather History Graph

Search for Another Location

Airport:

Trip Planner

Search our weather history database for the weather conditions in past years. The results will help you decide how hot, cold, wet, or windy it might be!

Date:

Astronomy

Jul. 04, 2014 Rise Set
Actual Time 5:52 AM MDT 8:39 PM MDT
Civil Twilight 5:21 AM MDT 9:10 PM MDT
Nautical Twilight 4:41 AM MDT 9:50 PM MDT
Astronomical Twilight 3:56 AM MDT 10:34 PM MDT
Moon 12:46 PM MDT (7/4) 12:07 AM MDT (7/4)
Length of Visible Light 15h 49m
Length of Day
14h 46m
Waxing Crescent, 43% of the Moon is Illuminated
Jul 4
Waxing Crescent
Jul 5
First Quarter
Jul 12
Full
Jul 18
Last Quarter
Jul 26
New

Hourly Weather History & Observations

Time (MDT) Temp. Dew Point Humidity Pressure Visibility Wind Dir Wind Speed Gust Speed Precip Events Conditions
12:53 AM 68.0 °F 39.9 °F 36% 29.95 in 10.0 mi SE 11.5 mph - N/A   Clear
1:53 AM 69.1 °F 39.9 °F 35% 29.96 in 10.0 mi SE 6.9 mph - N/A   Clear
2:53 AM 69.1 °F 39.9 °F 35% 29.98 in 10.0 mi East 3.5 mph - N/A   Partly Cloudy
3:53 AM 66.9 °F 43.0 °F 42% 30.03 in 10.0 mi SSE 6.9 mph - N/A   Overcast
4:53 AM 66.0 °F 43.0 °F 43% 30.04 in 10.0 mi SSE 8.1 mph - N/A   Mostly Cloudy
5:53 AM 66.9 °F 42.1 °F 40% 30.04 in 10.0 mi SSE 6.9 mph - N/A   Clear
6:53 AM 66.9 °F 43.0 °F 42% 30.06 in 10.0 mi East 6.9 mph - N/A   Clear
7:53 AM 71.1 °F 41.0 °F 34% 30.06 in 10.0 mi SSE 5.8 mph - N/A   Clear
8:53 AM 75.0 °F 42.1 °F 31% 30.06 in 10.0 mi SSE 5.8 mph - N/A   Clear
9:53 AM 79.0 °F 43.0 °F 28% 30.04 in 10.0 mi Variable 3.5 mph - N/A   Clear
10:53 AM 84.0 °F 39.9 °F 21% 30.01 in 10.0 mi NW 6.9 mph - N/A   Clear
11:53 AM 86.0 °F 41.0 °F 20% 30.00 in 10.0 mi North - - N/A   Clear
12:53 PM 88.0 °F 39.9 °F 18% 29.98 in 10.0 mi North 11.5 mph - N/A   Clear
1:53 PM 88.0 °F 37.9 °F 17% 29.94 in 10.0 mi North 8.1 mph - N/A   Clear
2:53 PM 86.0 °F 39.9 °F 20% 29.94 in 10.0 mi NNW 9.2 mph - N/A   Clear
3:53 PM 84.0 °F 43.0 °F 24% 29.94 in 10.0 mi Variable 3.5 mph - N/A   Partly Cloudy
4:53 PM 89.1 °F 39.0 °F 17% 29.90 in 10.0 mi Variable 4.6 mph - N/A   Clear
5:53 PM 90.0 °F 34.0 °F 14% 29.87 in 10.0 mi Variable 5.8 mph - N/A   Clear
6:53 PM 89.1 °F 34.0 °F 14% 29.88 in 10.0 mi Calm Calm - N/A   Clear
7:53 PM 87.1 °F 37.9 °F 18% 29.89 in 10.0 mi SSE 6.9 mph - N/A   Clear
8:53 PM 79.0 °F 45.0 °F 30% 29.92 in 10.0 mi SE 4.6 mph - N/A   Clear
9:53 PM 78.1 °F 43.0 °F 29% 29.95 in 10.0 mi SSE 13.8 mph - N/A   Clear
10:53 PM 75.9 °F 44.1 °F 32% 29.97 in 10.0 mi East 8.1 mph - N/A   Partly Cloudy
11:53 PM 73.9 °F 44.1 °F 34% 29.98 in 10.0 mi ESE 8.1 mph - N/A   Partly Cloudy